GFSWCAN_850_thetae_021.txt.gz
Theta_e
305 301 298 295 295 295 294 293 293 297 298 295 297 302 303 302 302 302 301 301 301 300 301 301 301 302 303 303 306 305 305 306 307 308 309 310 311 312 312 313 315 316 314 314 314 316 323 316 314 318 314 313 313 314
308 306 304 300 297 296 296 295 293 294 298 295 296 301 303 302 302 302 302 301 300 300 301 301 301 303 303 303 302 303 305 305 307 307 308 308 312 311 312 313 312 315 314 316 316 317 313 312 313 312 311 312 313 314
308 308 307 305 302 299 297 298 297 294 298 295 295 299 303 303 301 301 301 301 300 300 302 302 302 303 302 303 303 302 304 305 306 305 307 306 310 308 312 311 308 310 310 314 313 313 311 312 312 311 311 312 312 313
307 308 307 307 305 303 303 298 300 296 297 294 295 299 304 304 303 301 301 302 301 302 302 303 304 304 304 305 305 304 302 304 304 305 306 309 310 308 310 309 310 310 310 311 312 311 310 312 310 310 310 311 311 312
306 307 308 307 307 304 304 304 300 300 296 294 295 298 304 304 305 304 302 303 304 303 304 304 303 303 305 305 305 306 305 305 304 307 308 308 308 309 310 310 309 308 310 311 311 309 309 309 309 310 310 311 312 312
306 306 306 305 307 307 305 305 304 302 299 294 295 299 305 305 305 305 303 304 304 304 303 305 303 304 305 306 306 306 306 305 305 307 308 307 306 308 310 310 308 307 307 308 309 309 309 309 309 310 310 310 311 311
306 306 306 305 306 307 306 306 304 303 302 294 296 301 306 305 306 306 305 305 305 304 303 304 304 304 305 307 307 307 306 306 306 307 307 306 307 306 308 309 308 307 306 306 306 309 310 310 310 309 310 310 310 311
307 306 306 305 306 307 306 306 305 303 297 295 297 301 306 306 306 306 306 306 306 303 303 303 306 306 306 307 308 306 306 305 305 306 306 307 307 306 308 308 307 306 306 306 307 307 307 308 309 310 310 310 311 311
306 306 306 305 305 307 307 306 306 303 302 295 298 306 306 307 306 306 306 307 305 304 304 304 305 308 306 308 306 305 304 307 305 308 308 306 306 309 307 306 305 305 305 307 306 306 307 308 309 310 310 310 311 312
305 306 306 307 305 306 306 306 305 303 305 295 301 306 306 307 307 308 306 305 305 305 304 304 305 306 305 307 307 305 304 305 308 308 306 306 309 306 306 305 306 307 307 307 308 307 307 307 308 309 309 310 311 312
304 305 305 306 305 306 305 305 302 302 304 297 296 301 306 305 308 307 306 306 305 307 306 306 306 307 306 308 306 304 305 305 308 308 308 310 310 308 307 306 307 308 309 309 308 308 307 308 308 308 309 310 311 311
302 303 304 306 305 305 304 305 304 303 302 298 297 300 303 306 304 305 305 304 307 309 306 308 307 306 306 305 305 305 305 305 308 305 308 310 309 308 307 307 307 308 309 308 309 309 309 310 310 309 309 310 311 312
302 303 305 304 305 305 304 304 305 304 302 298 303 304 305 304 305 307 307 308 308 306 307 306 307 306 305 304 303 305 306 307 303 309 310 310 309 308 307 307 308 308 309 309 309 310 310 311 311 311 310 310 311 312
297 301 303 305 304 304 305 305 305 304 302 301 304 305 305 306 306 308 308 308 306 306 306 305 306 307 305 305 305 306 304 303 307 310 310 310 308 308 307 307 307 308 309 309 308 309 310 310 310 312 312 311 311 311
299 301 304 304 304 304 303 303 305 304 299 302 305 307 307 305 304 305 305 305 306 306 305 304 304 304 306 306 305 304 305 307 307 311 310 308 308 307 307 307 307 308 309 309 309 309 309 310 310 311 312 312 311 310
297 299 302 303 303 303 303 304 304 302 303 304 306 307 305 304 306 304 305 306 305 305 305 304 306 306 307 305 305 305 305 306 313 306 308 307 307 306 307 307 307 308 308 308 308 309 309 309 310 310 310 310 311 311
296 298 300 300 301 302 303 304 302 304 307 308 308 308 306 305 306 305 305 305 305 305 308 306 308 309 303 305 304 304 306 311 307 308 307 307 306 306 306 306 306 306 307 307 307 307 308 308 309 309 308 309 310 312
297 297 298 299 300 301 303 300 299 305 307 309 308 307 305 306 306 306 306 306 305 305 305 308 305 308 309 307 308 306 303 306 307 307 307 308 307 306 306 306 306 306 306 306 307 307 307 308 308 308 308 307 307 308
297 298 298 299 298 300 300 299 299 303 307 308 307 307 306 306 306 306 305 305 305 305 305 306 309 309 310 306 307 307 306 306 306 306 307 307 306 306 306 306 306 306 305 305 306 306 307 307 308 308 307 306 306 306
294 297 300 301 300 299 297 297 298 304 305 307 305 305 305 305 305 305 305 305 304 304 306 307 308 308 307 306 306 306 307 306 305 307 307 307 307 306 306 306 305 305 305 304 305 306 306 307 308 308 307 306 306 305
296 296 297 299 299 300 300 298 297 299 303 305 305 305 306 305 305 304 304 304 303 305 307 306 306 306 306 306 305 306 307 306 305 306 307 307 307 306 306 306 305 305 305 305 305 307 307 306 307 307 307 306 305 305
295 296 297 297 298 298 298 299 297 297 298 303 303 303 304 304 304 304 303 304 305 305 305 305 305 306 306 306 306 306 306 306 306 306 306 306 306 306 306 305 305 305 305 305 305 306 306 304 306 306 306 306 305 303
295 296 297 297 296 298 300 300 300 300 301 300 302 304 303 302 302 301 304 303 304 303 304 304 305 305 305 305 305 305 306 306 306 306 306 306 306 305 305 306 305 305 304 305 305 304 303 303 306 305 306 305 304 302
295 296 296 296 295 297 299 301 302 303 302 303 304 305 304 303 301 303 305 304 304 303 303 303 304 304 305 305 305 306 306 306 305 306 306 305 305 305 304 304 304 304 303 303 304 304 302 303 305 305 304 303 304 304
295 296 295 297 297 299 300 301 302 302 304 304 304 304 304 302 305 304 304 304 303 303 303 303 304 305 305 304 304 304 306 306 305 305 305 304 303 301 301 302 302 302 302 303 304 304 302 301 302 303 303 303 303 304
296 295 297 296 297 299 301 303 303 303 303 303 304 303 301 303 303 304 304 301 301 302 303 303 302 303 303 303 304 306 306 305 304 304 304 303 301 300 299 301 303 303 303 302 302 301 301 300 300 300 300 301 302 303
296 294 295 296 296 298 299 300 300 301 302 303 303 302 303 303 303 303 301 302 302 302 302 303 304 304 302 302 304 305 305 303 303 303 303 302 301 300 298 300 301 302 302 302 301 300 300 299 298 298 298 299 300 301
295 294 296 296 295 297 299 300 300 301 302 302 302 303 303 303 304 302 302 302 302 301 301 302 304 304 304 305 305 305 304 304 303 303 302 301 300 299 298 300 301 301 301 301 301 300 300 299 299 297 296 297 298 299
294 294 294 295 296 296 297 298 299 299 300 301 302 302 302 302 302 301 301 300 300 300 300 301 302 303 304 304 304 303 303 303 303 302 302 301 300 300 299 300 300 300 300 300 299 299 298 298 297 296 295 295 295 297
293 293 294 295 296 296 296 297 297 298 298 299 299 299 300 300 300 299 299 299 299 299 300 300 301 301 301 302 302 302 302 303 302 302 302 301 300 300 299 299 299 299 299 298 298 298 297 296 295 295 295 294 294 294
294 294 294 295 296 296 295 296 296 296 297 297 298 298 299 299 298 299 299 299 299 300 300 300 301 300 300 301 301 301 301 301 302 302 301 300 299 299 298 298 298 297 298 298 298 297 296 296 295 294 294 293 292 292
294 295 295 295 295 295 295 296 296 297 297 297 297 297 298 298 298 297 295 297 299 299 300 300 301 300 300 300 300 299 299 300 300 299 299 299 299 298 297 297 297 297 297 297 297 296 295 294 293 292 291 291 290 290
293 294 294 295 295 295 296 297 297 297 297 298 298 298 299 298 296 291 293 295 296 297 297 299 300 300 299 299 299 299 299 298 297 296 296 295 295 296 295 296 296 296 296 296 296 295 294 292 291 290 289 288 288 288

GFSWCAN_850_thetae_024.txt.gz
Theta_e
306 307 308 307 307 305 302 300 298 299 296 297 293 295 298 303 302 302 303 302 301 301 302 302 303 303 304 304 307 305 307 308 308 310 311 311 313 313 313 313 314 315 314 314 315 320 326 317 319 324 319 318 319 320
306 307 308 308 307 307 305 304 304 300 298 297 293 294 297 303 303 302 303 303 301 300 302 303 303 303 303 304 303 304 305 305 306 309 309 309 312 313 313 318 313 319 316 319 318 319 313 316 315 315 315 317 318 318
306 306 306 306 307 306 307 306 305 305 301 299 296 294 295 302 304 303 303 304 301 301 303 306 306 304 304 304 303 301 303 305 307 306 307 309 310 307 314 313 311 311 310 315 316 314 312 312 312 313 313 314 315 317
306 306 306 306 306 305 306 307 306 306 304 302 298 294 295 302 305 304 303 304 302 302 303 308 306 306 305 305 305 305 302 303 304 304 308 310 311 309 312 310 313 312 311 313 315 313 312 312 311 311 312 312 313 316
306 305 306 307 306 305 306 307 307 306 304 301 295 294 297 303 305 305 304 304 303 303 307 306 306 306 306 306 306 306 304 303 305 307 309 310 309 310 311 310 311 308 310 313 315 312 311 311 310 311 311 312 312 314
307 306 306 307 306 306 306 306 307 307 305 302 298 295 299 304 305 305 307 304 305 304 303 307 307 307 307 308 308 308 307 306 307 309 309 309 309 309 311 310 310 309 309 309 310 309 310 311 311 311 310 311 312 313
304 305 306 306 306 306 305 306 307 307 307 305 299 295 301 306 305 307 308 306 306 305 303 306 310 308 308 309 309 309 308 308 309 309 310 310 309 309 310 312 309 308 307 307 308 309 310 312 311 310 311 312 313 314
300 303 304 305 306 306 306 305 306 306 306 305 302 298 306 306 306 307 306 306 306 305 305 306 312 310 309 310 310 308 309 309 309 309 310 310 310 310 312 308 306 307 306 307 308 308 309 309 310 311 311 312 312 313
299 300 302 303 305 305 306 305 306 305 306 306 301 304 306 306 308 307 306 306 306 305 306 308 309 310 309 308 308 309 307 310 309 310 309 309 310 312 308 306 307 307 308 309 308 308 309 309 310 311 312 312 312 313
294 299 301 302 304 304 305 305 305 305 305 306 297 306 309 307 306 307 306 304 304 306 305 307 308 309 308 309 308 308 308 310 312 311 309 310 311 309 307 306 307 308 308 309 310 310 310 310 311 311 311 312 312 313
295 297 299 302 303 304 305 305 305 304 305 303 302 302 303 304 303 308 309 309 309 309 308 309 310 310 308 310 308 306 311 310 313 312 311 311 311 310 310 309 309 309 309 309 310 310 310 310 310 311 312 312 312 313
292 296 300 301 302 304 304 305 304 303 303 302 300 299 302 305 308 309 310 310 311 310 310 311 310 309 309 307 307 308 309 310 313 310 312 310 311 309 309 309 309 310 309 308 309 310 311 312 313 312 312 313 313 313
291 294 294 294 301 304 304 303 301 304 304 302 301 302 305 308 309 310 309 310 310 309 309 309 310 309 307 307 308 309 308 312 309 313 311 311 310 309 309 308 308 309 309 310 309 309 310 311 312 313 314 314 314 313
291 292 293 298 303 304 303 302 303 303 303 302 304 307 309 310 310 311 311 309 308 308 308 309 309 310 309 309 309 309 310 309 312 313 312 311 310 310 309 309 308 308 309 309 309 311 311 311 310 311 312 312 313 315
291 293 293 297 302 302 302 303 303 303 302 302 305 307 309 308 309 309 309 308 308 309 309 309 309 308 311 309 309 309 310 312 312 313 312 311 310 310 310 309 309 308 308 308 308 308 309 310 311 311 311 310 311 313
291 294 296 299 300 300 302 303 302 303 301 302 305 309 309 309 308 308 308 308 308 309 308 308 309 310 310 310 309 309 309 310 311 312 310 310 310 310 309 309 308 308 308 308 308 308 310 309 310 311 309 308 308 308
290 295 297 296 297 298 300 300 301 303 304 306 308 307 307 307 307 306 306 307 308 308 309 308 308 309 310 310 312 308 309 310 310 309 310 310 310 309 308 309 308 308 307 307 308 308 309 310 310 310 309 308 308 309
292 295 296 297 298 298 299 301 302 303 305 307 309 309 308 308 307 307 307 307 307 307 307 308 308 309 311 312 312 310 309 310 309 308 308 309 310 309 308 308 308 307 307 307 308 308 308 309 310 310 310 309 308 308
293 293 294 296 298 298 300 300 300 303 305 307 308 308 308 307 307 307 306 306 307 307 308 308 308 309 310 309 308 307 307 308 308 308 308 310 310 309 308 308 308 307 307 307 307 307 307 307 308 308 309 308 308 306
291 294 295 298 299 299 299 301 300 303 304 308 308 307 308 307 307 307 307 307 307 307 307 308 308 307 307 307 307 307 306 308 309 308 308 308 308 309 308 308 308 308 307 306 306 306 306 306 306 307 307 308 306 304
292 295 295 296 298 299 300 302 302 302 303 304 306 307 307 307 307 307 307 307 307 306 308 306 306 305 306 306 306 307 307 308 308 308 307 307 308 308 308 308 307 307 306 306 306 306 306 306 305 307 306 307 307 305
294 294 295 295 298 298 298 300 302 301 301 303 304 305 305 306 306 306 306 306 306 306 307 306 306 306 306 305 307 308 307 308 309 308 307 306 307 307 307 307 306 306 306 306 306 305 305 305 305 306 306 307 306 305
292 293 294 296 297 297 299 301 302 302 304 304 303 305 306 306 305 304 306 306 307 306 306 306 306 306 306 305 306 308 309 308 308 308 308 307 307 307 307 307 306 305 305 306 306 305 305 305 304 304 304 304 305 305
293 294 295 295 296 299 299 302 301 303 304 306 306 306 306 306 306 306 306 306 306 306 305 305 305 305 306 307 306 306 307 308 308 308 308 307 307 307 306 305 305 305 305 305 305 305 305 304 303 303 303 303 303 303
295 295 295 296 296 298 300 301 302 304 304 305 305 306 306 305 306 306 306 306 306 305 305 305 305 306 306 307 307 307 308 308 307 307 306 307 306 305 303 303 303 304 304 304 305 304 304 303 303 302 302 300 301 302
296 296 296 297 298 299 301 301 302 303 304 304 304 304 305 306 305 306 306 305 305 304 304 305 305 306 305 305 305 306 307 307 307 307 307 306 304 303 302 301 302 303 304 304 304 303 302 302 301 300 300 299 300 300
294 296 296 296 298 299 300 301 301 303 303 303 304 305 305 306 305 305 304 304 304 303 303 303 303 305 306 305 306 306 307 307 307 306 305 304 303 303 301 301 302 303 303 303 302 302 302 301 301 299 299 297 297 299
293 294 296 296 297 298 299 300 300 300 302 302 303 304 305 304 305 304 304 304 303 302 302 302 302 303 304 305 306 307 307 306 305 305 304 303 302 302 302 302 302 300 302 302 301 301 300 300 299 298 297 296 295 296
293 294 295 296 295 296 297 298 299 298 298 299 301 301 301 301 302 303 303 302 302 301 301 301 301 302 303 304 305 306 306 305 305 304 303 303 302 302 302 302 300 301 301 300 299 299 298 297 297 296 295 295 294 293
293 294 294 295 296 296 296 296 296 297 297 298 298 299 299 300 301 301 300 300 300 300 300 301 301 302 303 303 304 304 305 305 304 303 302 302 303 302 302 302 302 301 300 299 298 298 297 296 296 295 295 294 293 293
294 294 295 295 295 295 295 296 296 296 297 297 297 298 298 299 299 299 298 298 298 298 300 300 302 302 302 302 302 303 303 302 302 302 302 302 302 301 301 301 301 300 300 299 298 297 296 296 295 294 293 293 292 292
295 295 296 296 296 295 295 296 296 297 297 298 298 298 298 298 299 294 294 296 297 297 298 298 299 300 300 301 300 298 300 299 300 301 301 300 299 299 298 298 299 299 299 298 297 296 295 295 294 293 292 291 290 290
294 294 295 295 296 296 296 296 297 298 298 299 299 299 299 299 294 290 291 292 293 295 296 296 296 297 298 299 300 298 298 298 299 299 299 298 298 297 297 297 297 298 297 296 295 294 294 292 291 290 289 288 288 287

GFSWCAN_850_thetae_030.txt.gz
Theta_e
307 307 306 306 306 306 305 306 306 306 306 307 306 303 299 298 298 294 298 305 307 306 306 307 308 308 308 308 308 307 307 309 311 312 312 312 314 312 315 314 316 320 319 321 320 320 321 314 318 324 322 322 322 323
306 307 308 307 306 307 307 307 307 306 306 306 307 306 305 302 301 295 298 306 307 307 306 306 307 308 309 308 306 304 305 306 307 309 311 311 313 312 313 315 313 318 315 316 318 317 313 314 315 316 318 320 320 321
307 309 309 309 307 307 306 304 306 306 306 306 307 306 305 303 303 294 299 304 306 305 307 310 310 310 310 308 308 306 304 305 306 307 308 311 311 312 315 314 312 312 311 314 315 313 313 313 315 315 316 317 319 320
310 310 309 308 307 306 303 301 305 306 307 306 306 306 305 305 304 295 302 305 306 306 307 310 311 310 310 309 309 306 306 305 305 306 308 312 314 313 312 312 313 312 312 313 313 313 314 313 314 315 316 316 318 319
309 309 308 307 306 305 304 299 301 305 306 306 306 305 305 305 300 296 300 305 307 306 309 308 309 311 310 310 310 309 307 306 305 308 311 314 313 312 315 311 313 311 313 314 314 312 312 312 313 315 316 316 317 318
308 307 305 302 301 301 302 300 297 304 306 306 306 306 305 305 302 305 308 310 307 308 307 310 310 312 311 311 311 311 310 308 308 310 312 314 313 312 315 313 311 309 310 310 311 311 311 312 313 312 313 315 317 317
306 298 294 293 294 299 299 295 298 302 305 304 306 305 306 304 305 309 309 309 308 307 307 309 312 313 312 312 312 312 311 312 312 312 314 313 313 313 314 312 310 309 310 310 311 311 312 312 311 312 313 315 317 318
297 293 292 292 293 296 295 298 301 302 302 305 305 305 304 304 306 307 308 308 308 308 308 309 312 311 314 312 312 312 311 311 312 313 313 313 313 311 313 311 311 310 310 310 311 311 312 312 312 313 313 314 316 317
291 291 291 292 292 292 294 298 301 302 304 304 306 304 304 306 310 310 309 308 307 308 309 309 313 315 312 312 311 312 312 314 313 314 313 313 313 313 312 311 311 311 310 310 310 312 312 313 313 313 313 314 315 316
291 291 291 291 291 292 293 297 299 303 305 306 307 308 311 309 308 308 308 307 306 306 307 310 310 315 311 312 312 312 313 315 316 315 312 315 314 312 311 312 312 311 310 310 311 312 312 314 314 314 314 314 315 315
290 290 291 291 291 292 294 294 297 303 304 306 308 308 307 305 306 309 308 309 309 310 309 310 311 313 312 313 312 311 314 313 315 315 313 315 314 312 310 310 310 311 312 311 309 311 312 312 313 314 314 315 315 316
290 290 291 291 291 291 292 293 302 302 303 303 303 303 303 305 307 308 311 312 313 314 313 312 312 313 312 311 311 311 313 313 314 314 314 315 313 311 310 310 310 310 310 311 311 311 312 312 312 313 313 313 314 315
290 290 290 291 291 292 296 300 301 302 303 303 302 301 304 308 311 312 312 313 313 313 311 311 312 313 312 310 310 311 312 314 314 315 315 315 312 311 310 310 310 310 309 310 310 311 311 311 310 310 311 311 311 312
290 290 290 291 295 297 299 299 301 302 303 305 307 307 308 310 312 313 314 313 312 311 310 310 310 312 312 312 311 312 312 313 314 315 314 315 312 312 311 310 310 310 309 309 309 312 311 312 311 311 311 310 310 310
290 290 292 297 297 297 298 298 300 300 303 307 308 310 311 310 311 312 312 312 311 310 310 310 310 311 312 312 312 311 311 314 314 315 315 314 312 312 310 310 310 309 309 309 309 309 310 311 311 311 310 310 309 308
290 293 298 297 297 296 296 298 298 301 303 306 307 311 311 313 313 312 311 311 311 310 311 310 310 311 313 312 312 312 313 313 314 316 312 313 312 311 311 310 309 309 309 309 310 309 309 309 310 311 309 309 308 308
290 297 297 296 295 293 297 299 302 303 304 305 307 308 309 310 311 312 313 312 311 310 312 311 313 312 312 314 314 316 315 315 313 312 312 312 312 311 311 310 309 309 309 309 309 309 310 308 310 310 310 309 309 308
292 294 293 291 294 295 297 299 303 303 304 304 305 306 307 308 310 312 312 312 311 310 310 311 311 312 313 313 313 316 313 311 310 310 310 310 311 310 310 310 309 309 309 309 309 309 310 309 309 309 309 308 308 307
291 289 290 291 295 296 299 302 302 304 305 305 306 307 308 309 310 311 312 312 312 311 310 310 311 311 313 312 312 312 311 312 311 310 309 310 310 310 310 309 309 308 309 309 309 308 310 309 309 308 308 307 308 307
291 291 293 295 295 298 299 301 303 304 304 306 306 307 308 309 309 310 312 311 311 310 311 311 311 311 311 311 311 310 311 310 310 311 310 310 310 310 309 309 310 309 309 308 308 307 308 308 307 309 308 307 306 306
293 294 294 295 297 297 298 300 302 304 304 305 305 306 307 308 308 309 311 311 311 312 312 310 311 310 310 310 310 310 310 310 310 310 310 310 310 311 310 309 309 309 308 308 308 307 308 308 306 307 307 307 306 305
293 294 294 295 296 298 298 298 300 301 301 302 304 304 305 306 306 307 308 309 310 311 310 310 310 310 310 310 310 310 309 309 309 310 309 309 310 310 310 310 309 310 309 308 308 307 308 308 306 306 305 306 305 304
293 294 294 294 296 297 297 298 299 300 303 303 304 305 307 308 307 307 309 309 309 309 309 310 310 311 311 310 310 310 310 309 308 309 309 309 309 308 310 309 309 309 308 307 308 307 307 306 306 305 305 305 304 304
293 293 296 296 297 297 297 299 301 301 302 304 304 304 305 305 305 307 308 309 308 308 308 310 310 310 310 309 309 309 309 309 309 309 309 309 309 309 309 308 308 308 307 306 306 306 307 307 305 305 305 304 304 303
293 295 296 297 297 297 298 299 300 302 302 303 303 304 305 304 308 307 308 308 307 308 309 310 310 309 308 308 309 309 309 309 309 310 309 308 309 308 310 309 308 306 306 305 306 306 306 305 305 304 304 302 302 302
294 294 297 297 297 297 298 298 299 300 301 302 303 303 303 305 305 305 307 307 309 309 310 309 308 308 308 308 308 309 310 309 309 309 309 309 309 309 309 307 306 306 305 304 304 305 304 304 303 303 303 302 301 301
293 294 294 295 296 297 298 299 299 300 301 302 304 305 306 306 306 307 307 305 306 308 307 307 306 306 306 306 307 307 307 308 309 309 308 309 309 308 308 307 305 306 305 304 303 303 303 303 303 303 303 302 301 299
293 293 294 294 295 295 297 298 298 299 299 300 302 303 307 306 304 302 303 302 301 303 305 306 305 305 305 305 305 306 306 307 307 308 308 308 307 307 306 305 304 304 304 303 303 303 302 302 302 302 301 301 300 298
294 294 294 295 295 296 296 298 298 298 298 299 301 301 301 301 301 302 303 301 300 300 302 303 303 303 303 303 303 304 305 307 307 307 309 308 306 305 304 304 303 303 303 302 300 302 301 301 301 301 300 300 299 297
294 294 295 296 297 297 296 296 296 297 297 298 298 299 300 300 300 300 300 300 301 301 302 302 302 303 303 304 305 305 306 306 307 306 305 307 306 305 304 304 304 302 303 302 300 299 297 297 297 297 299 299 298 297
295 296 296 297 297 296 296 296 296 297 297 297 297 298 298 299 296 294 296 295 296 297 298 297 298 299 301 301 301 302 303 303 304 304 305 305 305 305 304 304 304 303 303 303 302 300 299 299 300 299 298 297 296 296
296 297 298 299 299 297 297 298 298 298 298 298 298 298 298 298 296 292 290 291 293 294 294 294 295 295 296 299 298 297 299 301 301 302 301 303 304 304 305 303 303 303 303 303 302 301 301 300 299 298 296 295 294 293
297 297 298 298 298 298 298 298 299 298 298 298 298 299 298 295 293 291 290 290 290 291 292 292 293 293 295 295 296 296 298 298 299 300 300 300 301 301 302 302 302 302 302 302 301 300 300 299 297 296 295 294 292 291

GFSWCAN_850_thetae_033.txt.gz
Theta_e
306 305 305 306 309 309 308 306 306 305 303 306 306 305 306 306 303 300 303 300 303 306 306 307 307 308 308 308 309 308 306 306 306 306 309 310 309 311 313 314 316 316 317 317 317 320 319 312 315 320 318 318 321 321
305 307 308 309 309 309 308 306 305 304 301 306 306 306 305 305 302 302 302 300 305 306 306 305 308 309 308 309 309 307 305 305 307 307 307 309 310 309 311 314 311 316 312 313 312 314 313 312 313 314 315 317 319 320
309 309 309 309 309 308 307 306 303 304 299 302 306 306 305 305 303 302 303 298 301 305 305 308 310 311 310 310 310 308 306 305 305 306 307 309 311 310 312 311 313 312 312 313 313 313 312 312 311 313 314 317 318 319
309 309 308 308 308 308 304 301 302 300 300 297 305 306 306 305 305 303 301 298 304 305 305 307 309 307 310 310 309 308 307 306 305 305 307 309 310 312 313 311 313 312 312 313 313 312 313 313 311 313 315 314 317 318
308 308 307 307 307 307 294 293 296 298 296 297 304 305 305 305 305 305 303 303 304 306 307 307 307 311 310 310 310 310 308 306 305 308 310 311 312 312 312 310 311 310 311 311 313 311 312 312 312 313 313 314 315 317
307 306 307 306 306 296 292 293 296 294 295 298 302 304 304 305 305 302 307 310 306 307 307 307 308 308 312 311 311 311 310 309 307 309 311 312 312 312 312 312 310 310 310 310 310 311 311 312 312 312 313 313 315 316
305 305 305 302 292 292 292 292 293 294 296 301 302 304 305 304 303 303 309 308 309 308 307 308 309 312 312 311 312 312 312 311 311 312 313 313 313 313 310 311 311 310 310 310 310 310 312 312 312 312 313 313 315 316
294 293 291 291 291 291 291 291 292 297 302 303 304 305 305 304 305 306 307 308 308 308 307 308 308 310 312 313 313 312 312 313 313 312 313 313 313 312 311 311 311 311 310 310 310 311 312 313 313 313 313 314 315 315
291 291 291 291 291 291 291 292 292 294 299 303 306 306 306 305 309 310 309 308 308 308 308 309 309 311 313 313 312 311 312 312 313 314 313 312 311 310 311 311 312 310 310 310 311 312 313 314 314 314 314 315 316 317
290 290 290 291 291 291 291 292 292 293 303 305 308 309 310 308 307 307 307 307 306 306 306 307 309 311 312 311 312 311 312 313 314 314 313 313 313 312 312 311 312 311 311 310 310 311 312 313 313 314 314 315 315 316
290 290 290 290 290 291 291 291 292 296 303 305 306 308 307 306 306 308 309 308 308 308 308 308 308 309 312 314 312 311 311 312 314 313 314 314 313 311 310 311 311 311 312 311 310 311 312 311 313 313 313 313 314 315
290 290 290 290 290 291 291 293 298 300 301 302 302 302 303 304 307 308 310 311 311 312 311 312 313 312 312 312 311 310 311 312 314 314 314 314 314 311 310 310 310 310 311 311 311 311 311 310 310 311 311 311 311 312
290 290 290 290 291 293 295 296 299 299 302 302 303 302 303 305 308 308 311 313 315 314 314 313 313 313 312 311 311 310 311 310 312 313 314 314 312 310 310 310 310 309 309 312 311 309 311 310 311 311 310 309 309 310
290 290 290 290 296 296 297 297 298 299 301 304 306 306 306 307 310 311 312 314 313 312 311 311 312 312 311 312 312 312 311 311 311 312 314 313 311 312 311 310 310 310 310 310 311 311 310 311 310 310 309 308 307 307
290 290 292 297 297 296 296 297 296 297 301 305 307 309 309 309 310 312 312 312 313 311 310 311 311 312 312 312 312 311 311 311 310 309 312 311 311 312 310 309 309 309 309 309 310 309 309 310 310 309 308 309 308 306
290 291 297 296 296 296 297 293 297 298 302 304 305 308 309 311 312 312 313 313 312 312 311 311 311 312 313 312 312 312 311 308 308 311 311 313 312 311 310 310 309 309 309 309 310 309 309 310 310 309 309 309 308 307
290 296 295 294 293 291 291 295 300 302 303 305 306 306 307 308 309 310 310 312 312 312 312 313 313 313 312 313 313 311 309 307 312 311 312 312 312 312 311 310 310 308 309 309 309 309 308 308 308 308 307 308 307 306
292 292 291 290 290 291 297 299 301 304 304 304 304 303 304 305 306 307 309 311 313 313 313 313 312 312 312 313 313 310 312 311 311 311 312 311 311 311 311 310 310 310 309 308 309 310 309 307 306 306 307 307 306 305
291 291 292 293 293 294 296 300 300 302 303 304 305 305 306 307 308 309 309 310 312 312 311 312 312 312 311 312 312 313 312 311 312 313 311 309 311 310 309 310 309 309 309 309 310 310 309 308 309 308 306 306 306 305
290 291 293 295 295 295 297 299 301 304 303 304 303 304 305 306 308 308 308 310 311 312 313 312 312 311 311 311 311 310 310 311 311 312 311 310 311 310 310 309 309 308 308 309 308 309 309 308 309 308 307 305 304 304
290 294 294 295 295 296 296 299 300 302 304 304 303 304 306 306 307 307 307 307 310 312 313 312 311 311 311 311 311 310 311 311 310 310 310 311 311 310 310 310 309 309 309 308 308 308 308 306 308 308 306 305 301 303
291 291 293 293 294 296 297 297 299 300 300 300 300 300 301 303 304 304 304 305 307 310 311 311 312 312 312 311 311 311 311 311 310 310 310 310 310 310 309 308 309 309 309 309 308 309 307 306 307 306 306 305 303 303
292 293 294 294 294 296 296 297 298 299 300 302 302 303 304 304 305 305 308 308 307 307 308 309 311 311 311 311 311 311 311 310 310 310 310 309 309 310 310 310 310 308 309 308 308 308 307 306 305 305 305 304 304 304
293 293 294 295 295 296 297 298 299 300 301 301 302 303 303 304 304 305 306 306 306 307 309 309 310 311 310 311 311 311 310 310 309 310 310 309 309 310 310 310 309 309 309 307 307 307 307 306 305 305 304 304 303 303
293 293 294 295 297 297 297 297 298 299 299 300 300 301 302 302 303 304 305 305 307 309 310 309 309 310 310 310 309 309 310 310 309 309 309 309 309 309 310 309 308 308 307 306 307 307 306 306 305 305 304 302 302 301
294 294 295 296 297 297 297 297 298 299 301 300 301 302 302 303 303 303 306 304 304 303 305 307 307 309 309 309 309 309 310 310 309 309 309 310 309 309 309 309 308 308 307 306 306 306 305 305 304 303 303 302 301 300
293 294 293 293 294 295 296 296 296 298 298 298 300 301 303 303 305 303 303 301 300 302 303 304 306 305 307 307 307 307 307 307 308 309 309 309 309 309 309 308 308 307 305 305 305 305 304 303 303 303 303 302 301 299
294 293 293 293 294 294 296 296 296 297 298 298 300 302 301 301 302 301 301 300 300 300 301 302 302 303 304 304 304 304 305 306 307 307 308 309 309 309 308 308 308 307 305 304 304 304 304 303 303 303 303 302 301 299
293 293 293 294 294 295 295 296 296 296 297 298 299 300 300 301 300 300 300 300 301 300 298 299 300 301 300 302 304 305 305 305 306 307 307 308 308 307 307 307 307 305 304 303 303 302 302 302 303 302 301 301 300 298
294 294 294 295 296 296 296 296 296 296 297 297 297 297 299 299 295 297 298 298 298 298 298 298 298 298 299 300 301 303 303 304 305 305 305 304 305 305 304 304 304 304 303 303 302 302 301 301 301 300 300 299 298 297
295 295 296 296 297 297 297 297 297 297 298 298 298 298 298 295 294 292 293 293 294 295 296 295 295 296 297 298 299 299 299 299 301 302 303 303 304 304 304 305 304 303 303 303 301 301 300 298 298 299 299 299 298 296
296 297 297 298 298 298 298 298 298 298 299 299 299 298 299 296 293 291 289 290 291 292 293 293 294 294 294 295 296 297 297 298 299 300 301 302 304 302 304 304 303 303 303 301 301 300 299 299 300 299 298 296 296 295
298 298 298 298 299 299 299 299 299 299 299 299 299 297 295 292 291 290 289 289 290 291 291 292 292 293 293 293 294 294 295 296 296 298 298 300 300 301 301 301 303 303 303 303 302 300 300 299 299 297 296 295 294 293

GFSWCAN_850_thetae_036.txt.gz
Theta_e
306 305 308 309 309 309 309 309 308 307 306 303 302 299 305 305 304 303 303 301 300 300 302 303 305 306 306 307 306 307 306 303 303 306 308 309 309 309 311 312 314 314 315 316 314 319 316 311 313 319 315 313 315 317
307 309 309 309 309 309 308 308 308 307 298 302 302 299 302 305 305 304 303 302 302 300 302 301 303 306 308 310 307 307 306 304 306 306 306 308 310 308 310 311 310 315 312 312 311 312 308 311 312 312 314 314 316 317
307 308 308 308 308 308 307 307 307 304 294 296 299 298 299 305 304 304 304 302 302 300 303 306 308 310 310 310 310 308 306 305 305 305 303 308 310 309 311 309 312 311 311 313 313 311 312 312 311 313 313 314 313 315
307 307 307 307 307 306 307 307 306 293 293 297 295 296 299 303 304 304 304 303 300 301 305 305 306 306 307 310 310 309 308 307 305 305 305 308 309 309 309 310 311 308 309 310 313 311 311 312 312 313 314 314 314 314
307 306 306 306 305 306 305 302 293 292 293 294 295 300 302 302 303 304 305 304 304 303 306 306 306 310 307 309 310 309 309 308 306 306 307 310 310 312 310 307 310 309 311 311 311 309 310 311 312 312 313 314 314 314
305 305 301 297 299 294 292 292 292 292 292 293 299 300 301 303 303 303 305 309 305 300 305 307 306 306 309 310 309 310 310 309 308 308 310 310 311 310 309 309 309 310 310 310 310 310 310 311 312 311 313 314 314 314
295 292 292 291 291 291 291 291 291 292 292 293 300 302 303 304 303 303 305 307 306 303 307 306 305 308 310 310 310 310 310 310 310 311 311 311 311 310 306 309 309 311 311 310 309 309 310 313 313 314 314 315 316 317
292 291 291 291 291 291 291 291 291 292 293 294 298 303 305 305 305 304 306 307 308 307 307 306 304 307 311 312 311 312 312 311 311 312 312 310 310 308 308 308 310 310 310 310 311 312 313 314 314 314 314 316 316 316
291 291 291 290 291 291 291 291 291 292 293 301 304 306 307 305 306 309 309 307 308 307 307 307 302 303 312 312 312 311 311 307 311 309 310 310 307 305 307 310 311 311 310 310 311 312 312 313 314 314 314 315 315 315
290 290 290 290 290 290 290 291 291 292 299 303 307 309 309 306 306 306 307 307 306 307 307 308 307 305 309 310 310 309 310 308 309 310 312 308 307 310 310 310 310 311 311 310 310 311 311 312 312 311 312 312 312 313
290 290 290 290 290 290 291 291 292 297 301 302 304 306 306 305 306 307 309 305 306 307 306 306 306 304 308 309 310 309 306 306 308 310 314 311 309 310 310 310 310 310 311 311 311 311 310 311 311 310 310 310 311 311
290 290 290 290 290 291 294 297 297 297 299 300 301 301 302 303 306 307 308 308 309 309 308 307 308 307 310 312 307 307 306 307 310 311 312 312 310 310 310 310 310 311 311 311 309 310 310 311 310 308 308 308 309 309
290 290 290 290 290 294 297 297 296 296 298 302 302 302 301 303 305 308 306 309 312 311 312 312 310 311 312 310 308 304 306 303 306 303 308 309 311 310 310 309 309 310 311 311 310 309 311 310 309 308 308 306 306 307
290 290 290 291 294 296 296 296 296 295 298 302 304 303 304 303 306 306 305 307 311 312 312 312 312 310 311 308 309 310 307 305 305 303 306 309 310 311 310 310 309 310 311 310 310 309 310 309 309 309 308 307 305 305
290 290 293 296 295 295 295 295 294 293 297 302 305 305 305 305 307 308 308 309 310 311 312 310 310 311 307 310 309 308 310 305 300 300 303 311 310 309 311 309 309 309 310 309 310 310 309 309 309 309 308 306 306 305
289 290 296 295 295 294 291 290 295 297 299 302 303 304 306 305 306 307 307 308 309 311 311 310 308 308 310 307 309 310 305 305 301 301 311 311 311 310 311 309 309 309 309 310 309 308 309 309 308 308 307 306 305 304
291 293 294 293 291 290 290 292 297 300 299 302 304 303 304 305 305 306 307 306 306 311 312 312 311 310 307 307 307 305 305 302 307 308 310 311 311 311 310 310 309 309 308 309 309 309 307 307 306 307 307 305 304 304
290 290 290 293 294 292 292 298 298 300 303 302 302 303 302 302 302 304 306 307 308 311 311 311 311 310 307 308 304 305 310 310 309 311 311 311 310 311 311 310 310 309 308 309 309 309 306 306 305 307 306 305 302 302
289 289 290 293 294 294 294 297 298 300 301 302 303 303 303 304 304 305 305 307 308 309 311 311 311 308 307 308 309 311 311 311 311 311 311 311 309 310 311 310 310 309 309 309 309 309 307 307 306 304 303 301 300 302
290 290 290 293 294 294 295 296 298 301 302 303 302 301 302 303 304 305 306 307 307 310 312 312 309 309 310 310 311 311 310 310 310 311 311 311 310 310 310 310 309 309 308 309 309 309 308 308 307 306 304 299 299 300
291 292 292 293 294 295 295 296 298 300 302 303 303 302 301 302 301 302 303 302 303 307 309 311 311 311 311 311 311 311 311 311 310 311 311 311 311 311 310 309 309 308 308 309 308 309 308 308 307 306 304 300 298 298
291 291 291 292 293 293 296 296 296 298 298 298 298 298 298 298 300 300 303 303 304 305 305 306 307 309 309 310 311 311 311 311 311 311 310 310 310 311 310 310 309 309 309 308 308 308 308 308 307 306 304 302 300 299
291 292 293 293 294 295 296 296 298 298 299 299 300 300 300 300 301 302 303 304 303 305 307 308 308 308 308 309 311 311 311 311 310 310 310 310 310 310 310 310 310 309 309 308 308 307 306 307 307 305 304 302 301 300
292 293 294 294 294 292 295 297 298 298 299 297 298 298 299 299 301 301 302 302 305 305 307 308 309 310 311 311 311 311 311 310 310 310 310 310 310 309 310 308 308 309 309 308 308 307 305 306 306 304 304 303 302 300
292 292 293 293 295 296 297 297 297 297 297 298 298 298 298 300 298 299 300 302 302 301 303 305 307 307 307 309 310 310 310 310 310 310 310 310 309 309 310 310 310 308 308 307 308 307 306 305 304 304 304 302 302 300
289 293 291 294 295 296 296 297 296 295 296 298 300 299 299 298 301 303 302 300 299 299 301 302 303 303 306 307 307 307 309 309 309 309 310 309 309 309 309 310 309 309 308 308 307 307 306 305 305 304 303 302 301 300
289 289 293 293 293 293 293 293 294 294 296 297 297 297 298 302 302 301 299 299 299 299 299 300 300 301 302 303 305 307 307 308 309 309 309 309 309 309 309 309 309 308 307 307 306 306 306 305 305 303 303 302 301 298
293 293 293 293 293 293 293 294 294 295 296 296 297 298 298 300 300 298 298 298 300 299 298 298 298 298 299 301 303 304 305 307 307 308 308 309 309 309 309 309 309 308 308 307 306 306 306 305 304 303 302 302 301 300
293 293 293 293 293 293 293 294 294 294 295 296 296 298 299 297 293 295 295 297 297 297 296 297 298 298 299 300 300 300 301 304 305 306 306 307 308 308 308 309 308 308 307 305 306 305 305 304 303 302 302 302 301 299
293 293 294 294 294 294 295 295 295 295 295 296 296 297 297 292 290 292 294 294 294 293 293 294 294 296 297 298 299 299 300 300 302 302 303 303 304 305 306 307 307 305 305 305 305 304 304 303 303 303 302 301 300 299
294 294 295 295 296 296 296 296 297 297 297 297 297 298 295 292 291 290 290 291 291 291 292 292 293 294 295 295 296 297 298 299 300 300 301 301 302 302 304 304 305 305 304 304 303 303 303 303 302 302 301 300 299 298
295 296 297 297 297 298 298 298 298 298 298 298 298 297 295 292 291 290 288 290 291 293 292 292 292 293 293 293 294 294 295 296 298 298 299 299 301 302 302 304 304 303 302 301 303 302 302 301 301 301 300 299 298 297
297 297 298 298 299 298 299 298 298 299 299 297 293 292 291 290 289 288 288 289 291 291 291 291 291 292 292 292 292 293 294 294 295 297 298 298 299 299 299 300 301 301 300 300 300 300 299 299 299 299 299 298 297 296

GFSWCAN_850_thetae_042.txt.gz
Theta_e
307 307 307 307 307 307 306 306 305 304 303 304 302 301 299 299 300 299 303 302 303 301 302 302 302 302 301 302 304 305 305 303 301 304 305 306 307 309 310 310 311 312 312 312 313 314 313 306 305 313 313 314 314 313
307 307 307 307 307 306 305 304 296 295 296 292 293 293 297 299 299 299 301 303 303 302 302 302 303 302 301 302 302 303 305 304 304 306 305 305 303 307 309 311 308 309 309 311 309 310 307 306 305 308 308 312 313 313
307 307 307 307 306 305 303 297 292 292 292 291 291 291 292 294 299 301 300 301 302 302 302 302 304 305 306 305 304 302 305 306 305 305 305 307 308 308 311 311 311 308 308 311 311 309 309 309 307 309 311 311 312 313
307 307 306 305 304 300 294 292 291 291 292 291 291 292 294 296 299 300 301 301 301 301 300 303 304 304 304 305 305 305 306 306 306 305 305 306 308 307 310 310 310 309 309 310 311 310 309 309 309 310 311 312 312 317
306 306 305 303 298 292 291 291 291 291 291 292 292 292 293 296 299 300 301 301 301 301 302 302 304 306 306 306 305 306 306 305 307 306 306 308 309 310 310 307 308 308 310 311 311 310 310 310 311 313 311 312 313 315
305 304 299 293 292 291 291 291 291 291 291 291 291 292 292 293 296 301 301 305 306 302 301 303 305 305 307 308 307 306 307 307 307 307 308 308 309 310 312 306 304 308 309 309 310 310 311 312 313 313 313 312 313 315
304 300 294 292 291 291 291 291 291 291 291 291 292 292 296 298 297 300 302 304 304 302 301 304 302 305 306 308 307 307 307 307 308 309 309 307 308 310 307 305 305 308 309 310 310 311 312 312 311 311 312 311 312 314
301 293 291 291 291 291 291 291 291 292 292 292 293 298 302 304 303 302 305 303 302 302 303 306 303 303 308 309 309 308 308 308 308 310 310 307 308 305 306 304 307 309 310 310 310 310 309 309 308 309 311 312 312 312
292 291 291 291 291 291 290 291 291 292 293 293 297 305 305 305 305 306 305 306 304 303 305 305 303 301 306 310 309 310 310 311 309 311 307 309 307 305 304 305 308 309 310 310 310 309 307 306 306 306 308 309 310 310
291 290 291 290 290 290 290 291 293 295 293 296 302 304 306 305 305 305 306 306 303 303 304 307 306 303 306 305 305 308 307 307 309 309 310 310 306 309 307 309 309 310 310 310 310 310 308 307 306 305 306 307 307 308
290 290 290 290 290 290 290 292 296 294 294 295 297 301 302 303 304 305 306 307 305 304 304 304 305 306 306 303 303 308 306 304 309 307 312 311 308 307 309 309 309 310 310 309 310 310 308 307 306 305 305 305 305 307
289 289 289 290 290 290 293 295 295 294 294 294 295 297 300 302 303 305 305 306 305 304 306 305 305 305 305 305 308 306 306 304 309 306 309 309 306 310 309 309 309 310 310 309 310 310 308 308 307 305 304 304 304 304
289 289 289 289 291 294 294 293 293 293 291 296 299 300 301 302 302 304 304 308 308 308 310 310 310 307 305 308 306 301 305 305 303 301 306 305 307 309 309 309 309 310 310 309 310 309 308 309 307 305 303 303 303 303
289 289 289 289 291 293 293 293 294 291 290 298 300 300 302 300 301 300 302 303 307 308 308 309 309 310 309 305 303 307 304 300 300 303 304 304 309 310 310 309 309 310 310 309 309 308 308 309 306 304 303 302 302 301
289 289 289 290 292 293 292 293 291 291 290 296 299 300 300 301 302 303 305 306 306 305 308 311 310 309 308 309 306 304 308 303 299 300 298 307 310 310 309 309 309 309 310 309 309 308 308 307 306 304 302 302 301 300
288 289 291 293 292 290 290 290 291 291 294 296 296 299 301 302 302 303 303 303 303 305 304 309 308 308 309 306 307 308 303 298 299 297 307 309 310 310 309 309 309 309 309 309 309 308 307 307 306 303 301 301 301 300
289 289 289 289 289 289 290 292 293 295 295 296 297 298 299 299 300 300 302 301 301 302 306 308 309 310 308 307 306 300 301 299 304 306 307 309 310 309 309 309 309 309 309 309 309 308 306 306 305 301 302 300 300 300
289 289 290 290 290 290 291 293 295 296 296 297 298 299 299 301 301 301 301 300 301 304 308 310 309 310 309 309 306 305 308 309 307 309 308 309 311 311 310 310 309 308 308 309 309 308 305 305 302 300 302 300 300 300
290 290 290 291 292 291 292 293 294 296 297 297 298 298 299 299 299 300 300 301 302 302 304 308 308 310 308 307 306 309 309 309 310 309 310 310 310 310 310 310 310 309 308 309 309 307 306 304 303 299 300 301 301 300
290 290 291 292 292 292 293 293 294 296 297 299 299 299 299 299 300 300 297 297 298 303 306 307 307 308 308 308 308 309 310 310 310 310 310 310 310 310 310 310 310 310 308 308 309 307 306 305 304 300 299 300 301 301
291 291 291 291 291 291 292 294 294 295 296 297 298 297 295 295 296 296 298 299 300 301 303 305 305 306 307 307 306 306 307 309 309 310 310 310 310 311 310 310 310 310 309 308 309 308 307 306 305 303 299 298 300 301
291 291 292 291 291 291 293 293 294 294 295 294 294 295 295 296 298 299 298 300 302 301 301 301 302 303 306 308 308 308 307 307 308 309 310 310 310 310 310 310 310 310 309 309 309 308 307 307 306 305 302 299 299 299
291 291 291 291 292 293 293 293 294 295 296 297 296 297 297 297 298 298 299 302 301 300 300 302 302 304 305 306 307 308 308 308 308 309 310 310 310 310 310 310 310 310 309 309 308 308 308 307 306 306 304 301 299 299
291 291 291 292 293 292 293 294 295 296 296 294 294 295 297 297 298 298 299 300 299 299 299 300 300 301 303 304 305 306 306 307 308 309 309 310 310 310 310 310 310 309 309 309 308 308 308 308 307 307 305 303 301 299
291 291 290 289 292 293 295 295 293 293 293 292 295 297 297 298 298 301 300 298 298 298 297 298 299 300 299 300 303 303 304 306 307 308 309 308 309 309 310 310 310 310 309 309 308 308 308 308 308 307 306 304 303 301
289 290 289 292 292 293 292 293 292 292 292 294 296 297 297 297 300 300 297 293 294 296 295 296 296 297 298 298 298 301 302 304 306 307 308 308 308 308 309 309 310 310 309 309 309 308 308 308 308 307 307 305 303 302
289 287 291 292 292 292 292 292 292 291 293 294 295 296 297 298 298 295 293 291 292 293 294 294 295 297 297 297 298 299 301 302 303 305 306 307 307 308 308 309 309 309 309 309 308 309 308 308 307 307 306 306 304 302
291 292 292 292 292 292 293 292 293 293 294 295 295 296 297 296 293 290 290 290 291 292 294 295 294 295 297 297 298 298 299 301 302 303 304 305 306 307 307 308 308 309 309 308 308 309 308 308 308 307 306 305 304 303
292 292 292 292 293 292 292 293 293 293 293 294 294 295 295 289 288 289 290 291 292 292 292 292 293 294 295 296 297 298 298 298 299 300 300 299 302 305 304 306 307 307 307 308 307 307 307 308 307 307 306 305 304 303
292 293 293 293 294 294 294 294 294 294 294 294 295 293 289 288 289 290 290 291 291 291 291 291 292 292 292 293 294 295 296 297 297 297 298 298 298 299 300 302 303 305 307 307 307 307 306 306 306 306 305 305 304 302
293 293 294 294 294 295 296 296 296 295 295 295 295 295 290 289 288 288 290 290 290 289 290 291 290 290 291 291 291 292 294 295 296 297 297 297 297 298 299 300 301 301 302 304 305 304 304 306 306 306 306 304 304 302
294 294 295 296 296 296 297 296 297 297 294 293 292 293 291 289 288 287 286 288 289 289 289 289 289 290 290 290 291 291 291 292 293 295 296 296 296 297 297 298 299 300 301 302 303 304 304 303 303 305 307 305 304 302
294 295 295 295 295 296 295 295 296 292 292 290 289 289 288 287 287 286 286 286 287 287 288 288 289 289 289 290 290 290 291 291 292 292 292 293 294 295 296 297 297 297 298 299 300 300 302 302 302 302 301 300 300 300

GFSWCAN_850_thetae_048.txt.gz
Theta_e
307 306 307 308 307 306 305 301 294 293 292 292 292 292 292 292 294 298 300 301 300 301 301 302 303 304 303 303 304 304 306 309 310 312 311 312 311 311 311 311 313 314 314 314 315 316 319 311 309 311 312 308 308 309
306 307 308 307 306 305 304 299 292 292 292 292 291 291 292 292 297 297 298 301 301 301 301 302 302 302 303 303 303 303 305 306 308 311 311 312 311 311 310 314 312 313 313 315 312 315 311 310 309 306 307 308 309 310
306 308 307 306 305 304 298 294 292 292 292 292 292 291 292 294 296 298 298 299 300 301 301 303 306 305 305 304 304 304 304 306 308 306 307 309 309 310 314 313 312 311 311 313 312 312 312 311 309 310 308 309 310 311
308 307 307 306 305 303 293 292 292 292 292 292 292 292 292 293 295 297 297 300 301 301 301 305 304 306 306 305 304 304 307 307 307 306 307 308 311 310 313 313 313 312 311 312 312 311 311 311 310 310 309 309 309 312
308 307 306 305 304 300 292 292 292 292 292 292 292 292 293 295 296 297 295 298 299 301 303 303 303 306 306 306 305 305 305 306 305 306 308 309 308 311 311 312 314 311 311 313 315 310 311 310 309 307 308 308 308 311
307 306 305 304 304 296 292 292 292 292 292 292 292 293 294 295 298 299 301 303 303 301 301 305 306 306 307 308 307 306 305 305 303 306 308 309 309 311 313 315 312 310 310 311 311 311 309 309 307 306 307 307 309 310
307 306 305 304 302 293 292 291 292 291 292 292 292 293 294 295 297 299 303 303 303 302 301 303 306 308 307 309 307 306 305 305 305 306 308 310 311 310 312 315 312 310 310 311 311 309 310 309 307 306 306 306 308 308
307 306 305 303 297 292 291 291 291 291 292 292 293 294 299 302 301 300 302 302 301 301 302 305 307 309 308 311 311 308 308 306 307 309 310 313 312 312 314 313 311 310 310 310 310 310 310 309 306 305 305 307 307 307
306 305 304 299 292 291 291 291 291 291 292 292 293 297 302 303 302 303 304 304 304 301 302 305 307 311 308 310 311 310 309 310 309 310 311 313 313 314 314 312 310 310 311 310 309 311 309 308 306 305 305 306 306 306
306 303 299 292 291 290 290 290 292 292 292 293 294 302 305 304 303 303 303 303 301 301 301 304 306 308 308 309 310 311 310 312 314 313 312 314 314 311 312 311 310 311 311 309 310 310 309 308 306 304 304 305 306 305
302 296 292 290 290 290 290 292 294 291 293 295 294 297 299 300 302 304 305 306 303 304 303 304 306 306 307 309 310 309 311 312 314 314 314 312 314 314 314 312 310 311 311 310 310 309 309 307 305 304 304 304 305 305
293 291 290 290 290 290 289 293 293 293 295 293 292 293 296 299 302 304 306 306 308 308 308 308 308 306 308 309 310 311 311 312 312 311 313 313 313 313 311 311 311 311 310 310 309 309 308 306 304 304 303 302 303 304
290 290 289 289 289 289 290 291 292 290 290 295 296 297 299 301 303 303 305 305 308 309 309 308 309 306 306 307 310 311 313 313 310 312 312 313 313 313 312 312 311 311 310 311 310 308 307 305 304 303 302 302 302 302
289 289 289 289 290 289 290 290 289 290 294 295 297 300 301 303 303 305 306 307 308 309 308 308 309 307 307 309 310 313 312 311 313 313 312 312 311 313 311 311 311 311 310 311 310 307 306 305 304 303 302 301 300 300
289 289 289 289 289 289 289 289 289 292 294 294 297 299 301 302 303 303 304 305 306 306 307 307 308 306 303 306 309 312 313 314 314 315 312 311 313 313 312 311 311 311 310 310 310 307 305 305 304 303 301 300 299 298
289 289 289 289 289 289 290 290 292 293 292 294 295 297 298 299 300 300 301 302 303 303 302 304 307 310 311 310 312 313 314 317 316 314 311 311 314 313 312 312 312 311 310 310 310 308 306 304 304 303 301 300 298 297
288 290 289 289 290 291 291 292 293 293 294 295 297 297 297 298 299 300 300 301 300 301 304 307 309 309 306 309 311 313 316 315 312 312 312 311 312 313 313 312 312 311 310 311 310 308 306 304 304 304 302 300 298 297
289 290 290 290 290 292 293 294 294 294 294 295 296 296 297 297 298 298 299 300 301 302 304 306 307 310 311 311 312 313 311 312 312 312 312 312 312 313 312 312 311 311 310 311 310 308 306 304 304 304 303 302 301 299
291 290 290 291 291 292 293 294 295 295 295 296 296 296 297 298 298 298 299 299 301 301 302 305 307 308 310 308 307 308 308 309 311 311 311 313 312 312 312 312 312 311 311 311 310 309 307 304 303 304 303 302 301 301
290 291 291 291 291 293 293 294 295 295 296 296 296 297 297 298 298 299 299 299 299 300 304 306 306 304 305 303 303 305 306 307 308 308 310 313 312 313 313 312 312 311 311 311 311 309 307 305 303 303 303 302 301 301
291 291 291 291 292 293 293 294 295 295 296 296 296 297 297 298 299 300 300 300 301 302 303 302 301 301 301 303 305 304 303 303 306 309 309 310 311 312 313 312 313 311 311 311 310 309 308 307 304 302 303 302 300 299
291 291 292 292 293 293 294 294 295 295 295 296 297 297 298 299 299 300 300 300 299 297 298 298 299 300 301 301 301 302 302 303 303 307 308 308 310 311 311 311 312 312 311 311 311 310 309 307 305 303 302 300 300 300
291 292 293 292 293 293 294 295 296 296 297 296 296 298 299 299 299 300 299 296 296 295 295 296 297 298 299 299 299 299 300 302 302 303 305 306 309 310 311 312 311 312 312 312 311 311 309 307 305 304 301 302 300 299
291 292 293 293 293 294 295 295 295 295 295 295 296 297 299 299 298 300 298 296 294 294 294 294 295 296 297 297 298 297 299 301 302 304 303 305 306 309 312 312 312 312 312 312 311 311 310 307 305 304 303 302 302 301
292 291 292 292 293 294 295 296 295 295 295 296 295 298 298 297 300 298 297 295 294 293 292 293 294 295 295 296 296 297 299 299 300 301 301 304 305 307 311 311 311 310 312 312 312 311 309 307 306 305 304 303 303 302
292 292 293 294 295 295 296 295 295 295 296 295 296 297 297 299 298 297 295 293 292 291 292 292 293 294 294 294 295 297 297 298 299 299 299 300 302 304 306 310 311 312 310 311 311 311 309 308 307 306 305 303 303 302
293 293 293 293 294 294 295 295 295 295 295 295 297 297 299 298 298 295 293 291 291 291 292 292 292 292 293 293 295 297 296 298 298 298 298 299 300 300 301 302 304 306 308 309 310 311 310 308 307 306 306 304 303 302
294 294 296 295 295 295 295 295 295 296 296 296 296 297 296 295 294 292 291 290 290 290 290 290 291 291 291 292 292 294 296 296 297 297 297 298 299 300 301 302 303 304 307 307 310 310 310 309 308 307 306 305 303 303
295 295 295 296 295 295 295 296 296 296 295 296 297 297 295 292 290 290 289 289 290 289 290 290 289 289 291 292 291 290 292 294 295 294 293 294 296 298 299 300 301 302 304 304 306 309 310 309 308 307 307 306 304 303
295 295 296 295 295 297 297 297 297 297 296 296 295 293 291 289 288 288 289 288 288 289 289 289 289 288 289 289 290 291 290 291 291 290 290 291 293 295 296 298 300 300 300 300 302 305 307 307 307 307 307 306 304 303
295 295 295 296 296 297 297 297 297 297 296 295 295 295 292 289 288 287 286 288 288 288 288 288 288 287 287 287 288 288 289 289 290 290 291 292 293 294 295 296 297 299 300 300 300 302 303 304 305 305 305 304 303 305
295 296 296 297 297 296 296 297 296 296 296 295 294 292 291 291 291 287 285 285 286 286 286 286 286 286 286 286 287 288 288 288 288 289 289 290 291 292 293 294 295 296 297 299 301 302 301 301 301 303 302 302 302 303
296 296 296 296 296 296 296 295 295 295 294 294 293 292 291 290 289 287 285 285 285 285 285 286 286 286 285 285 285 285 286 286 287 287 287 288 289 289 290 291 293 294 295 295 297 299 300 300 301 301 301 300 300 300